(191199) = 2002 PO47

Discovered at Socorro on 2002-08-10 by LINEAR.

Orbit

Orbit type: Main Belt

Note: WebGL enabled browser required.

epoch2023-02-25.0
epoch JD2460000.5
perihelion date2019-03-18.44092
perihelion JD2458560.94092
argument of perihelion (°)342.00852
ascending node (°)316.99832
inclination (°)20.26702
eccentricity0.0701756
perihelion distance (AU)2.9766287
Tisserand w.r.t. Jupiter3.1
ΔV w.r.t. Earth (km/sec)12.4
semimajor axis (AU)3.2012806
mean anomaly (°)247.71238
mean daily motion (°/day)0.17207520
aphelion distance (AU)3.426
period (years)5.73
P-vector [x]0.49795628
P-vector [y]-0.74700411
P-vector [z]-0.44048201
Q-vector [x]0.83440164
Q-vector [y]0.27433873
Q-vector [z]0.47802946
absolute magnitude14.47
phase slope0.15
uncertainty0
referenceMPO 745323
observations used855
oppositions15
arc length (days)9742
first opposition used1996
last opposition used2023
residual rms (arc-secs)0.71
perturbers coarse indicatorM-v
perturbers precise indicator003Ek
first observation date used1996-08-12.0
last observation date used2023-04-15.0
computer nameMPCLINUX
JD of orbit computation2456966.725378
perihelion JD uncertainty (days)2.5870E-04
argument of perihelion uncertainty (°)4.5333E-05
ascending node uncertainty (°)1.3441E-05
inclination uncertainty (°)1.0082E-05
eccentricity uncertainty 8.9411E-08
perihelion distance uncertainty (AU)2.9359E-07
Minimum Orbit Intersection Distances (in AU)
for orbit epoch: 2460000.5, reference: E2023-H04
Mercury2.52972
Venus2.24971
Earth1.96544
Mars1.57925
Jupiter1.87606
Saturn5.72769
Uranus15.0958
Neptune26.8459

Observations

871 total observations over interval: 1996 08 12.43244 – 2023 04 15.152122
These data are available for download (format description).

Date (UT) J2000 RA J2000 Dec Magn Location Ref
1996 08 12.43244 21 18 35.96 -15 10 03.1 18.6 V 566 – Haleakala-NEAT/GEODSS MPS 124071
1996 08 12.44297 21 18 35.31 -15 10 01.3 18.6 V 566 – Haleakala-NEAT/GEODSS MPS 124071
1996 08 12.45153 21 18 34.80 -15 10 00.6 18.7 V 566 – Haleakala-NEAT/GEODSS MPS 124071
2002 08 10.34370 22 56 57.72 +04 37 35.8 19.3   704 – Lincoln Laboratory ETS, New Mexico MPS 60187
2002 08 10.35537 22 56 57.24 +04 37 38.1 18.8   704 – Lincoln Laboratory ETS, New Mexico MPS 60187
2002 08 10.36683 22 56 56.72 +04 37 40.0 19.4   704 – Lincoln Laboratory ETS, New Mexico MPS 60187
2002 08 10.37874 22 56 56.20 +04 37 42.5 19.2   704 – Lincoln Laboratory ETS, New Mexico MPS 60187
2002 08 10.39019 22 56 55.68 +04 37 44.5 19.6   704 – Lincoln Laboratory ETS, New Mexico MPS 60187
2002 08 11.30866 22 56 15.05 +04 40 52.7 19.1   704 – Lincoln Laboratory ETS, New Mexico MPS 60187
2002 08 11.32409 22 56 14.31 +04 40 55.5 19.7   704 – Lincoln Laboratory ETS, New Mexico MPS 60187
2002 08 11.33952 22 56 13.59 +04 40 58.4 19.2   704 – Lincoln Laboratory ETS, New Mexico MPS 60187
2002 08 11.35495 22 56 12.87 +04 41 02.2 19.7   704 – Lincoln Laboratory ETS, New Mexico MPS 60187
2002 08 11.37039 22 56 12.20 +04 41 05.3 19.6   704 – Lincoln Laboratory ETS, New Mexico MPS 60187
2002 08 13.29929 22 54 44.04 +04 47 15.3 19.1   704 – Lincoln Laboratory ETS, New Mexico MPS 60187
2002 08 13.31502 22 54 43.27 +04 47 17.7 19.3   704 – Lincoln Laboratory ETS, New Mexico MPS 60187
2002 08 13.33086 22 54 42.56 +04 47 20.1 20.3   704 – Lincoln Laboratory ETS, New Mexico MPS 60187
2002 08 13.34655 22 54 41.74 +04 47 24.5 19.4   704 – Lincoln Laboratory ETS, New Mexico MPS 60187
2002 08 13.36223 22 54 41.02 +04 47 25.9 19.3   704 – Lincoln Laboratory ETS, New Mexico MPS 60187
2002 08 14.33050 22 53 55.46 +04 50 19.7 18.7 R 699 – Lowell Observatory-LONEOS MPS 60187
2002 08 14.34451 22 53 54.73 +04 50 22.5   699 – Lowell Observatory-LONEOS MPS 60187
2002 08 14.35850 22 53 54.07 +04 50 24.3   699 – Lowell Observatory-LONEOS MPS 60187
2002 08 14.37255 22 53 53.41 +04 50 26.7   699 – Lowell Observatory-LONEOS MPS 60187
2002 08 18.54447 22 50 28.38 +05 01 25.9 20.5   608 – Haleakala-AMOS MPS 61323
2002 08 18.55495 22 50 27.79 +05 01 27.0 20.0   608 – Haleakala-AMOS MPS 61323
2002 08 18.56533 22 50 27.37 +05 01 28.7 19.8   608 – Haleakala-AMOS MPS 61323
2002 08 27.43220 22 42 37.43 +05 16 47.4 18.5   644 – Palomar Mountain/NEAT MPS 61323
2002 08 27.44262 22 42 36.85 +05 16 48.1 18.6   644 – Palomar Mountain/NEAT MPS 61323
2002 08 27.45309 22 42 36.27 +05 16 48.8 18.5   644 – Palomar Mountain/NEAT MPS 61323
2002 09 04.22421 22 35 28.06 +05 21 55.0 18.3 R 699 – Lowell Observatory-LONEOS MPS 61323
2002 09 04.24180 22 35 27.00 +05 21 55.8   699 – Lowell Observatory-LONEOS MPS 61323
2002 09 04.25938 22 35 26.07 +05 21 56.0   699 – Lowell Observatory-LONEOS MPS 61323
2002 09 04.27695 22 35 25.06 +05 21 55.7   699 – Lowell Observatory-LONEOS MPS 61323
2002 09 12.25034 22 28 16.37 +05 20 14.6 18.4   644 – Palomar Mountain/NEAT MPS 61323
2002 09 12.27628 22 28 14.98 +05 20 13.9 18.4   644 – Palomar Mountain/NEAT MPS 61323
2002 09 12.31004 22 28 13.18 +05 20 12.7 18.3   644 – Palomar Mountain/NEAT MPS 61323
2002 10 04.20325 22 12 51.54 +04 55 42.7 19.0 R 699 – Lowell Observatory-LONEOS MPS 63303
2002 10 04.22076 22 12 50.94 +04 55 42.0   699 – Lowell Observatory-LONEOS MPS 63303
2002 10 04.23829 22 12 50.39 +04 55 40.0   699 – Lowell Observatory-LONEOS MPS 63303
2002 10 04.25582 22 12 49.86 +04 55 38.0   699 – Lowell Observatory-LONEOS MPS 63303
2002 10 06.10861 22 11 57.42 +04 53 11.6 18.8   644 – Palomar Mountain/NEAT MPS 63303
2002 10 06.12919 22 11 56.83 +04 53 10.3 19.1   644 – Palomar Mountain/NEAT MPS 63303
2002 10 06.15090 22 11 56.24 +04 53 08.3 18.9   644 – Palomar Mountain/NEAT MPS 63303
2004 12 13.405207 09 20 52.990 +22 45 05.67 20.23 V 645 – Apache Point-Sloan Digital Sky Survey MPS 390215
2004 12 13.408679 09 20 52.936 +22 45 05.44 20.94   645 – Apache Point-Sloan Digital Sky Survey MPS 390215
2004 12 21.40318 09 18 14.62 +22 39 27.1 20.4 R 703 – Catalina Sky Survey MPS 123504
2004 12 21.41509 09 18 14.37 +22 39 27.5 19.3 R 703 – Catalina Sky Survey MPS 123504
2004 12 21.42696 09 18 14.15 +22 39 27.2 19.9 R 703 – Catalina Sky Survey MPS 123504
2004 12 21.43868 09 18 13.75 +22 39 26.0 19.2 R 703 – Catalina Sky Survey MPS 123504
2005 01 06.39017 09 08 46.73 +22 35 29.7 18.9 R 703 – Catalina Sky Survey MPS 123504
2005 01 06.39769 09 08 46.36 +22 35 31.7 18.7 R 703 – Catalina Sky Survey MPS 123504
2005 01 06.40519 09 08 45.93 +22 35 30.4 18.4 R 703 – Catalina Sky Survey MPS 123504
2005 01 06.41274 09 08 45.65 +22 35 30.4 18.8 R 703 – Catalina Sky Survey MPS 123504
2005 01 13.32632 09 03 10.98 +22 34 50.0 19.7 V 691 – Steward Observatory, Kitt Peak-Spacewatch MPS 124071
2005 01 13.35219 09 03 09.62 +22 34 49.8 19.6 V 691 – Steward Observatory, Kitt Peak-Spacewatch MPS 124071
2005 01 13.37800 09 03 08.26 +22 34 49.6 19.7 V 691 – Steward Observatory, Kitt Peak-Spacewatch MPS 124071
2005 01 16.34754 09 00 32.13 +22 34 21.9 19.5   704 – Lincoln Laboratory ETS, New Mexico MPS 124696
2005 01 16.37358 09 00 30.59 +22 34 20.3 20.1   704 – Lincoln Laboratory ETS, New Mexico MPS 124696
2005 01 16.38709 09 00 29.87 +22 34 21.7 19.8   704 – Lincoln Laboratory ETS, New Mexico MPS 124696
2005 01 16.40011 09 00 29.17 +22 34 20.7 19.5   704 – Lincoln Laboratory ETS, New Mexico MPS 124696
2005 01 18.43091 08 58 38.84 +22 33 53.3 19.4 V 691 – Steward Observatory, Kitt Peak-Spacewatch MPS 124696
2005 01 18.45833 08 58 37.38 +22 33 52.9 19.3 V 691 – Steward Observatory, Kitt Peak-Spacewatch MPS 124696
2005 01 18.48952 08 58 35.57 +22 33 52.2 19.5 V 691 – Steward Observatory, Kitt Peak-Spacewatch MPS 124696
2005 01 19.34765 08 57 48.40 +22 33 38.3 19.0   704 – Lincoln Laboratory ETS, New Mexico MPS 124696
2005 01 19.36092 08 57 47.65 +22 33 38.6 19.4   704 – Lincoln Laboratory ETS, New Mexico MPS 124696
2005 01 19.37441 08 57 46.75 +22 33 37.6 19.9   704 – Lincoln Laboratory ETS, New Mexico MPS 124696
2005 01 19.38815 08 57 46.07 +22 33 38.7 19.6   704 – Lincoln Laboratory ETS, New Mexico MPS 124696
2005 01 20.26167 08 56 57.65 +22 33 22.8 19.0 R 699 – Lowell Observatory-LONEOS MPS 124696
2005 01 20.28605 08 56 56.28 +22 33 22.9   699 – Lowell Observatory-LONEOS MPS 124696
2005 01 20.31036 08 56 54.85 +22 33 21.9   699 – Lowell Observatory-LONEOS MPS 124696
2005 01 20.33472 08 56 53.49 +22 33 21.5   699 – Lowell Observatory-LONEOS MPS 124696
2005 02 01.27478 08 45 27.97 +22 26 22.7 18.6 R 703 – Catalina Sky Survey MPS 125649
2005 02 01.28274 08 45 27.51 +22 26 22.4 19.8 R 703 – Catalina Sky Survey MPS 125649
2005 02 01.29068 08 45 27.05 +22 26 22.2 18.8 R 703 – Catalina Sky Survey MPS 125649
2005 02 01.29863 08 45 26.53 +22 26 20.4 19.4 R 703 – Catalina Sky Survey MPS 125649
2005 02 03.29784 08 43 31.57 +22 24 26.7 18.9   704 – Lincoln Laboratory ETS, New Mexico MPS 125649
2005 02 03.31532 08 43 30.56 +22 24 25.5 19.5   704 – Lincoln Laboratory ETS, New Mexico MPS 125649
2005 02 03.32785 08 43 29.73 +22 24 25.2 19.3   704 – Lincoln Laboratory ETS, New Mexico MPS 125649
2005 02 03.34030 08 43 29.05 +22 24 24.0 19.3   704 – Lincoln Laboratory ETS, New Mexico MPS 125649
2005 02 03.35334 08 43 28.29 +22 24 23.2 19.1   704 – Lincoln Laboratory ETS, New Mexico MPS 125649
2005 02 09.13598 08 38 03.16 +22 17 24.4 18.9 R 699 – Lowell Observatory-LONEOS MPS 126753
2005 02 09.15628 08 38 01.97 +22 17 23.5   699 – Lowell Observatory-LONEOS MPS 126753
2005 02 09.17656 08 38 00.96 +22 17 21.1   699 – Lowell Observatory-LONEOS MPS 126753
2005 02 09.19682 08 37 59.71 +22 17 19.4   699 – Lowell Observatory-LONEOS MPS 126753
2005 03 02.27518 08 21 53.83 +21 33 25.8 19.5 R 699 – Lowell Observatory-LONEOS MPS 127888
2005 03 02.28739 08 21 53.25 +21 33 23.1   699 – Lowell Observatory-LONEOS MPS 127888
2005 03 02.29964 08 21 52.87 +21 33 22.1   699 – Lowell Observatory-LONEOS MPS 127888
2005 03 02.31189 08 21 52.49 +21 33 21.0   699 – Lowell Observatory-LONEOS MPS 127888
2005 03 09.18530 08 18 27.45 +21 13 21.2 19.3 R 703 – Catalina Sky Survey MPS 127888
2005 03 09.19377 08 18 27.18 +21 13 20.0 19.4 R 703 – Catalina Sky Survey MPS 127888
